Regional Weather Roundup
Issued by NWS

Home | Current Version | Previous Version | Graphics & Text | Print | Product List | Glossary On
Versions: 1 2 3 4 5 6 7 8 9 10 11 12 13 14 15 16 17 18 19 20 21 22 23 24 25 26 27 28 29 30 31 32 33 34 35 36 37 38 39 40 41 42 43 44 45 46 47 48 49 50
000
ASUS43 KDTX 070010
RWRMI
MICHIGAN HOURLY REGIONAL WEATHER ROUNDUP
NATIONAL WEATHER SERVICE DETROIT/PONTIAC MI
700 PM EST TUE DEC 06 2016

NOTE: "FAIR" INDICATES FEW OR NO CLOUDS BELOW 12,000 FEET WITH NO
SIGNIFICANT WEATHER AND/OR OBSTRUCTION TO VISIBILITY.

MIZ047>049-052>055-059>063-066>070-074>076-081>083-070100-
SOUTHEAST LOWER MICHIGAN

CITY           SKY/WX    TMP DP  RH WIND       PRES   REMARKS
ADRIAN         CLOUDY    37  36  96 NW9       29.78R WCI  30
6HR MIN TEMP:  36; 6HR MAX TEMP:  37; 6HR PCP:  0.08;

ALMA           CLOUDY    38  35  89 SW7       29.74S WCI  32
ANN ARBOR      CLOUDY    38  37  97 SW9       29.75R FOG     WCI  31
BAD AXE        LGT RAIN  37  34  90 S8        29.71S WCI  30
CARO           CLOUDY    37  35  94 SW8       29.72R WCI  30
DETROIT CITY   CLOUDY    40  40 100 CALM      29.72S FOG
6HR MIN TEMP:  39; 6HR MAX TEMP:  41; 6HR PCP:  0.16;

DETROIT        CLOUDY    40  39  97 SW8       29.74S FOG     WCI  34
6HR MIN TEMP:  39; 6HR MAX TEMP:  41; 6HR PCP:  0.19;

FLINT          CLOUDY    38  36  92 SW7       29.74R WCI  33
6HR MIN TEMP:  37; 6HR MAX TEMP:  39; 6HR PCP:  0.04;

GROSSE ILE     CLOUDY    40  38  93 S6        29.72R
6HR MIN TEMP:  39; 6HR MAX TEMP:  40; 6HR PCP:  0.15;

HILLSDALE      CLOUDY    36  32  87 W17G24    29.76R WCI  25
HOWELL         DRIZZLE   38  36  94 SW9       29.74R WCI  31

CITY           SKY/WX    TMP DP  RH WIND       PRES   REMARKS
JACKSON        CLOUDY    39  33  79 W10       29.76R WCI  32
6HR MIN TEMP:  38; 6HR MAX TEMP:  39;

LAMBERTVILLE   CLOUDY    39  37  93 W7        29.77R FOG     WCI  34
6HR MIN TEMP:  39; 6HR MAX TEMP:  42;

LANSING        CLOUDY    38  32  79 W9G20     29.76R WCI  31
6HR MIN TEMP:  38; 6HR MAX TEMP:  42;

LAPEER         NOT AVBL
MASON          CLOUDY    38  36  90 SW3       29.75R
MONROE         CLOUDY    39  39 100 W6        29.73R FOG     WCI  35
PONTIAC        DRIZZLE   38  36  92 SW5       29.71R FOG     WCI  34
6HR MIN TEMP:  37; 6HR MAX TEMP:  38; 6HR PCP:  0.05;

PORT HOPE        N/A     39  35  86 S13G22    29.68F WCI  31
6HR MIN TEMP:  39; 6HR MAX TEMP:  41;

PORT HURON     DRIZZLE   37  36  93 SE5       29.73S WCI  34
TRI CITIES     CLOUDY    39  36  89 SW7       29.73R WCI  34
6HR MIN TEMP:  38; 6HR MAX TEMP:  40;

MIDLAND        CLOUDY    39  32  75 SW5       29.72S
TROY           CLOUDY    39  37  93 CALM      29.73S FOG
SAGINAW HB     CLOUDY    37  34  87 S6        29.73R WCI  33
$$
MIZ043>046-050>051-056>058-064>065-071>073-077>080-070100-
SOUTHWEST LOWER MICHIGAN

CITY           SKY/WX    TMP DP  RH WIND       PRES   REMARKS
BATTLE CREEK   CLOUDY    38  34  85 SW13      29.77R WCI  30
6HR MIN TEMP:  38; 6HR MAX TEMP:  42;

BENTON HARBOR  MOCLDY    38  29  70 W16       29.82R WCI  29
6HR MIN TEMP:  38; 6HR MAX TEMP:  42;

BIG RAPIDS     PTCLDY    35  30  82 SW3       29.70S
6HR MIN TEMP:  35; 6HR MAX TEMP:  39;

COLDWATER      CLOUDY    38  33  84 W9        29.78R WCI  31
6HR MIN TEMP:  36; 6HR MAX TEMP:  45;

FREMONT        MOCLDY    37  30  77 W7        29.73R WCI  31
HOLLAND        MOCLDY    39  32  76 W16       29.78R WCI  30
6HR MIN TEMP:  37; 6HR MAX TEMP:  41;

GRAND RAPIDS   MOCLDY    37  31  78 SW9       29.75R WCI  30
6HR MIN TEMP:  35; 6HR MAX TEMP:  39;

IONIA          FAIR      35  32  90 S5        29.73F WCI  30
6HR MIN TEMP:  33; 6HR MAX TEMP:  37;

KALAMAZOO      PTCLDY    37  31  78 W7        29.79R WCI  32
6HR MIN TEMP:  37; 6HR MAX TEMP:  42;

LUDINGTON      CLOUDY    38  32  78 W12G20    29.71R WCI  31
6HR MIN TEMP:  38; 6HR MAX TEMP:  43;

MARSHALL       CLOUDY    38  33  81 W7        29.76S WCI  33
6HR MIN TEMP:  38; 6HR MAX TEMP:  40;

MOUNT PLEASANT CLOUDY    37  32  83 SW5       29.72F WCI  33
6HR MIN TEMP:  37; 6HR MAX TEMP:  39;

MUSKEGON       MOCLDY    40  31  70 W14G21    29.76R WCI  32
6HR MIN TEMP:  39; 6HR MAX TEMP:  43;

SOUTH HAVEN    MOCLDY    39  31  72 W10G18    29.80R WCI  32
$$
MIZ016>042-070100-
NORTHERN LOWER MICHIGAN

CITY           SKY/WX    TMP DP  RH WIND       PRES   REMARKS
ALPENA         CLOUDY    40  33  76 S7        29.69S
6HR MIN TEMP:  40; 6HR MAX TEMP:  42;

BEAVER ISLAND  CLOUDY    40  32  74 SE8       29.63F WCI  34
6HR MIN TEMP:  40; 6HR MAX TEMP:  42;

BELLAIRE       CLOUDY    38  32  78 CALM      29.68F
6HR MIN TEMP:  38; 6HR MAX TEMP:  42;

CADILLAC       PTCLDY    34  30  87 S5        29.66F WCI  29
CHARLEVOIX     CLOUDY    38  31  74 S7        29.69S WCI  33
6HR MIN TEMP:  38; 6HR MAX TEMP:  43;

FRANKFORT      CLOUDY    40  34  79 W14G21    29.67S WCI  33
GAYLORD        CLOUDY    36  29  75 SW10      29.66S WCI  28
6HR MIN TEMP:  36; 6HR MAX TEMP:  39;

GRAYLING       MOCLDY    36  32  84 S3        29.68F
6HR MIN TEMP:  36; 6HR MAX TEMP:  39;

HARBOR SPRINGS PTCLDY    38  30  73 S5        29.66F WCI  34
HOUGHTON LAKE  CLOUDY    36  31  82 SW7       29.70S WCI  30
6HR MIN TEMP:  36; 6HR MAX TEMP:  39;

MANISTEE       CLOUDY    39  32  76 W14G22    29.69R WCI  31
OSCODA         CLOUDY    41  33  74 S13       29.69R
6HR MIN TEMP:  41; 6HR MAX TEMP:  42;

PELLSTON       CLOUDY    39  29  67 SE7       29.67F WCI  34
6HR MIN TEMP:  39; 6HR MAX TEMP:  42;

ROGERS CITY    CLOUDY    40  33  77 S6        29.69R
TRAVERSE CITY  CLOUDY    39  30  70 CALM      29.67F
6HR MIN TEMP:  39; 6HR MAX TEMP:  44;

$$
MIZ007>008-015-070100-
EASTERN UPPER MICHIGAN

CITY           SKY/WX    TMP DP  RH WIND       PRES   REMARKS
KINROSS        CLOUDY    38  32  79 S12       29.67S WCI  30
6HR MIN TEMP:  37; 6HR MAX TEMP:  39;

MACKINAC ISLAN CLOUDY    38  31  76 S9G16     29.66F WCI  32
6HR MIN TEMP:  38; 6HR MAX TEMP:  41;

NEWBERRY       CLOUDY    37  32  83 S7        29.61F WCI  31
6HR MIN TEMP:  37; 6HR MAX TEMP:  39;

S. S. MARIE    CLOUDY    38  34  85 E3        29.65S
6HR MIN TEMP:  38; 6HR MAX TEMP:  40;

MUNISING         N/A     35  33  92 S6        29.59F WCI  30
6HR MIN TEMP:  35; 6HR MAX TEMP:  42; 6HR PCP:  0.02;

$$
MIZ004>006-011>014-085-070100-
CENTRAL UPPER MICHIGAN

CITY           SKY/WX    TMP DP  RH WIND       PRES   REMARKS
MANISTIQUE     CLOUDY    38  35  85 W9        29.61F WCI  32
6HR MIN TEMP:  37; 6HR MAX TEMP:  42;

ESCANABA       MOCLDY    34  30  85 SW6       29.63S WCI  29
6HR MIN TEMP:  34; 6HR MAX TEMP:  40; 6HR PCP: TRACE;

MENOMINEE      CLOUDY    34  25  69 W10G21    29.67R WCI  26
6HR MIN TEMP:  34; 6HR MAX TEMP:  39; 6HR PCP: TRACE;

SAWYER-GWINN   CLOUDY    32  28  86 SW10      29.57F WCI  24
$$
MIZ001>003-009>011-084-070100-
WESTERN UPPER MICHIGAN

CITY           SKY/WX    TMP DP  RH WIND       PRES   REMARKS
IRON MOUNTAIN  MOCLDY    29  19  66 SW10      29.60R WCI  20
6HR MIN TEMP:  29; 6HR MAX TEMP:  37; 6HR PCP:  0.01;

HOUGHTON       CLOUDY    30  20  66 SW10G21   29.53R WCI  21
6HR MIN TEMP:  30; 6HR MAX TEMP:  38; 6HR PCP: TRACE;

COPPER HARBOR    N/A     35  31  85 VRB5      29.52F WCI  31
6HR MIN TEMP:  35; 6HR MAX TEMP:  41; 6HR PCP:  0.07;

IRONWOOD       FLURRIES  22  15  75 SW15G21   29.58S WCI   9
6HR MIN TEMP:  22; 6HR MAX TEMP:  32; 6HR PCP: TRACE;

$$

ABBREVIATIONS USED IN REMARKS
   TC - TEMPERATURE IN CELSIUS
  WCI - WIND CHILL INDEX
   HX - HEAT INDEX
  VSB - VISIBILITY





USA.gov is the U.S. government's official web portal to all federal, state and local government web resources and services.